Tillbaka till svenska Fidonet
English   Information   Debug  
FILM   0/18
FNEWS_PUBLISH   4983
FN_SYSOP   42232
FN_SYSOP_OLD1   71952
FTP_FIDO   0/2
FTSC_PUBLIC   0/13976
FUNNY   0/4886
GENEALOGY.EUR   0/71
GET_INFO   105
GOLDED   137/408
HAM   1396/16713
HOLYSMOKE   0/6791
HOT_SITES   0/1
HTMLEDIT   0/71
HUB203   466
HUB_100   264
HUB_400   39
HUMOR   0/29
IC   1506/2851
INTERNET   0/424
INTERUSER   0/3
IP_CONNECT   719
JAMNNTPD   0/233
JAMTLAND   0/47
KATTY_KORNER   0/41
LAN   0/16
LINUX-USER   0/19
LINUXHELP   0/1155
LINUX   0/22382
LINUX_BBS   0/957
mail   18.68
mail_fore_ok   249
MENSA   0/341
MODERATOR   0/102
MONTE   0/992
MOSCOW_OKLAHOMA   0/1245
MUFFIN   0/783
MUSIC   0/321
N203_STAT   938
N203_SYSCHAT   313
NET203   321
NET204   69
NET_DEV   0/10
NORD.ADMIN   0/101
NORD.CHAT   0/2572
NORD.FIDONET   189
NORD.HARDWARE   0/28
NORD.KULTUR   0/114
NORD.PROG   0/32
NORD.SOFTWARE   0/88
NORD.TEKNIK   0/58
NORD   0/453
OCCULT_CHAT   0/93
OS2BBS   0/787
OS2DOSBBS   0/580
OS2HW   0/42
OS2INET   0/37
OS2LAN   0/134
OS2PROG   0/36
OS2REXX   0/113
OS2USER-L   207
OS2   0/4831
OSDEBATE   0/18996
PASCAL   0/490
PERL   0/457
PHP   0/45
POINTS   0/405
POLITICS   0/29554
POL_INC   0/14731
PSION   103
R20_ADMIN   1133
R20_AMATORRADIO   0/2
R20_BEST_OF_FIDONET   16
R20_CHAT   0/897
R20_DEPP   0/3
R20_DEV   400
R20_ECHO2   1889
R20_ECHOPRES   0/35
R20_ESTAT   0/719
R20_FIDONETPROG...
...RAM.MYPOINT
  0/2
R20_FIDONETPROGRAM   0/22
R20_FIDONET   0/248
R20_FILEFIND   0/24
R20_FILEFOUND   0/22
R20_HIFI   0/3
R20_INFO2   3781
R20_INTERNET   0/12940
R20_INTRESSE   0/60
R20_INTR_KOM   0/99
R20_KANDIDAT.CHAT   42
R20_KANDIDAT   28
R20_KOM_DEV   112
R20_KONTROLL   0/13360
R20_KORSET   0/18
R20_LOKALTRAFIK   0/24
R20_MODERATOR   0/1852
R20_NC   76
R20_NET200   245
R20_NETWORK.OTH...
...ERNETS
  0/13
R20_OPERATIVSYS...
...TEM.LINUX
  0/44
R20_PROGRAMVAROR   0/1
R20_REC2NEC   534
R20_SFOSM   0/341
R20_SF   0/108
R20_SPRAK.ENGLISH   0/1
R20_SQUISH   107
R20_TEST   2
R20_WORST_OF_FIDONET   20
RAR   0/9
RA_MULTI   106
RA_UTIL   0/162
REGCON.EUR   0/2069
REGCON   0/13
SCIENCE   0/1206
SF   0/239
SHAREWARE_SUPPORT   0/5146
SHAREWRE   0/14
SIMPSONS   0/169
STATS_OLD1   0/2539.065
STATS_OLD2   0/2530
STATS_OLD3   0/2395.095
STATS_OLD4   0/1692.25
SURVIVOR   0/495
SYSOPS_CORNER   0/3
SYSOP   0/84
TAGLINES   0/112
TEAMOS2   0/4530
TECH   0/2617
TEST.444   0/105
TRAPDOOR   0/19
TREK   0/755
TUB   0/290
UFO   33/40
UNIX   0/1316
USA_EURLINK   0/102
USR_MODEMS   0/1
VATICAN   0/2740
VIETNAM_VETS   0/14
VIRUS   0/378
VIRUS_INFO   0/201
VISUAL_BASIC   0/473
WHITEHOUSE   0/5187
WIN2000   0/101
WIN32   0/30
WIN95   526/4291
WIN95_OLD1   0/70272
WINDOWS   1281/1517
WWB_SYSOP   0/419
WWB_TECH   502/810
ZCC-PUBLIC   0/1
ZEC   4

 
4DOS   0/134
ABORTION   0/7
ALASKA_CHAT   0/506
ALLFIX_FILE   0/1313
ALLFIX_FILE_OLD1   0/7997
ALT_DOS   0/152
AMATEUR_RADIO   0/1039
AMIGASALE   0/14
AMIGA   0/331
AMIGA_INT   0/1
AMIGA_PROG   0/20
AMIGA_SYSOP   0/26
ANIME   0/15
ARGUS   0/924
ASCII_ART   0/340
ASIAN_LINK   0/651
ASTRONOMY   0/417
AUDIO   0/92
AUTOMOBILE_RACING   0/105
BABYLON5   0/17862
BAG   135
BATPOWER   0/361
BBBS.ENGLISH   0/382
BBSLAW   0/109
BBS_ADS   0/5290
BBS_INTERNET   0/507
BIBLE   337/3563
BINKD   0/1119
BINKLEY   0/215
BLUEWAVE   0/2173
CABLE_MODEMS   0/25
CBM   0/46
CDRECORD   0/66
CDROM   0/20
CLASSIC_COMPUTER   0/378
COMICS   0/15
CONSPRCY   0/899
COOKING   42003
COOKING_OLD1   0/24719
COOKING_OLD2   0/40862
COOKING_OLD3   0/37489
COOKING_OLD4   27289/35496
COOKING_OLD5   9370
C_ECHO   0/189
C_PLUSPLUS   0/31
DIRTY_DOZEN   0/201
DOORGAMES   0/2333
DOS_INTERNET   0/196
duplikat   6102
ECHOLIST   14572/18295
EC_SUPPORT   290/318
ELECTRONICS   0/359
ELEKTRONIK.GER   1534
ENET.LINGUISTIC   0/13
ENET.POLITICS   0/4
ENET.SOFT   0/11701
ENET.SYSOP   34332
ENET.TALKS   0/32
ENGLISH_TUTOR   0/2000
EVOLUTION   0/1335
FDECHO   0/217
FDN_ANNOUNCE   5636/7068
FIDONEWS   25122
FIDONEWS_OLD1   0/49742
FIDONEWS_OLD2   0/35949
FIDONEWS_OLD3   0/30874
FIDONEWS_OLD4   0/37224
FIDO_SYSOP   12973
FIDO_UTIL   0/180
FILEFIND   0/209
FILEGATE   0/212
Möte HAM, 16713 texter
 lista första sista föregående nästa
Text 4034, 876 rader
Skriven 2010-10-01 10:30:30 av Amsat List (1:323/120.0)
Ärende: [keps]  orb10273.amsa
=============================
[keps]  orb10273.amsa

Return-Path: <keps-bounces@amsat.org>
X-Rcpt: craig.healy@chowda.com
X-UIDL: 1285941915.50943

SB KEPS @ AMSAT  $ORB10273.O
Orbital Elements  10273.OSCAR

HR AMSAT ORBITAL ELEMENTS FOR OSCAR SATELLITES
FROM WA5QGD FORT WORTH,TX September 30, 2010
BID: ORB10273.O
TO ALL RADIO AMATEURS BT

Satellite: AO-07
Catalog number: 07530
Epoch time:      10273.46710209
Element set:     890
Inclination:      101.4006 deg
RA of node:       285.2451 deg
Eccentricity:    0.0012161
Arg of perigee:   067.6573 deg
Mean anomaly:     292.5794 deg
Mean motion:   12.53579821 rev/day
Decay rate:       -2.7e-07 rev/day^2
Epoch rev:           64164
Checksum:              288

Satellite: FO-29
Catalog number: 24278
Epoch time:      10273.55929418
Element set:     409
Inclination:      098.5170 deg
RA of node:       088.1440 deg
Eccentricity:    0.0350167
Arg of perigee:   210.3937 deg
Mean anomaly:     147.6481 deg
Mean motion:   13.52952660 rev/day
Decay rate:       -2.5e-07 rev/day^2
Epoch rev:           69735
Checksum:              324

Satellite: SO-33
Catalog number: 25509
Epoch time:      10272.40114350
Element set:    0804
Inclination:      031.4314 deg
RA of node:       279.1832 deg
Eccentricity:    0.0353595
Arg of perigee:   121.1966 deg
Mean anomaly:     242.3813 deg
Mean motion:   14.28330436 rev/day
Decay rate:       1.64e-06 rev/day^2
Epoch rev:           62296
Checksum:              276

Satellite: RS-22
Catalog number: 27939
Epoch time:      10273.69202779
Element set:     590
Inclination:      097.8751 deg
RA of node:       134.6166 deg
Eccentricity:    0.0014743
Arg of perigee:   085.9635 deg
Mean anomaly:     274.3247 deg
Mean motion:   14.63457458 rev/day
Decay rate:       1.65e-06 rev/day^2
Epoch rev:           37438
Checksum:              345

Satellite: VO-52
Catalog number: 28650
Epoch time:      10273.81387658
Element set:     610
Inclination:      097.6803 deg
RA of node:       323.0632 deg
Eccentricity:    0.0025928
Arg of perigee:   292.4864 deg
Mean anomaly:     067.3574 deg
Mean motion:   14.81814499 rev/day
Decay rate:       -5.8e-07 rev/day^2
Epoch rev:           29233
Checksum:              332

Satellite: SO-67
Catalog number: 35870
Epoch time:      10273.90307170
Element set:     153
Inclination:      097.3197 deg
RA of node:       320.1805 deg
Eccentricity:    0.0004676
Arg of perigee:   086.3972 deg
Mean anomaly:     000.0349 deg
Mean motion:   15.21080983 rev/day
Decay rate:      1.056e-05 rev/day^2
Epoch rev:            5752
Checksum:              291

Satellite: HO-68
Catalog number: 36122
Epoch time:      10273.74742907
Element set:     716
Inclination:      100.4581 deg
RA of node:       333.0527 deg
Eccentricity:    0.0007801
Arg of perigee:   095.5635 deg
Mean anomaly:     264.6372 deg
Mean motion:   13.16281884 rev/day
Decay rate:       -4.5e-07 rev/day^2
Epoch rev:            3810
Checksum:              291

/EX
SB KEPS @ AMSAT  $ORB10273.D
Orbital Elements  10273.MICROS

HR AMSAT ORBITAL ELEMENTS FOR THE MICROSATS
FROM WA5QGD FORT WORTH,TX September 30, 2010
BID: ORB10273.D
TO ALL RADIO AMATEURS BT

Satellite: UO-11
Catalog number: 14781
Epoch time:      10273.30142945
Element set:     351
Inclination:      098.0429 deg
RA of node:       325.2944 deg
Eccentricity:    0.0008058
Arg of perigee:   259.6677 deg
Mean anomaly:     100.3648 deg
Mean motion:   14.79837777 rev/day
Decay rate:      -1.18e-06 rev/day^2
Epoch rev:           42735
Checksum:              321

Satellite: AO-16
Catalog number: 20439
Epoch time:      10273.42669509
Element set:       6
Inclination:      098.3444 deg
RA of node:       227.2543 deg
Eccentricity:    0.0010212
Arg of perigee:   211.1638 deg
Mean anomaly:     148.8948 deg
Mean motion:   14.31875866 rev/day
Decay rate:        3.1e-07 rev/day^2
Epoch rev:            8044
Checksum:              292

Satellite: LO-19
Catalog number: 20442
Epoch time:      10273.40756491
Element set:     915
Inclination:      098.3075 deg
RA of node:       232.6162 deg
Eccentricity:    0.0011347
Arg of perigee:   205.0382 deg
Mean anomaly:     155.0271 deg
Mean motion:   14.32105239 rev/day
Decay rate:       -3.8e-07 rev/day^2
Epoch rev:            8061
Checksum:              265

Satellite: AO-27
Catalog number: 22825
Epoch time:      10272.38931744
Element set:    0639
Inclination:      098.4965 deg
RA of node:       217.6918 deg
Eccentricity:    0.0008092
Arg of perigee:   328.3769 deg
Mean anomaly:     031.6913 deg
Mean motion:   14.29309114 rev/day
Decay rate:       -4.4e-07 rev/day^2
Epoch rev:           88693
Checksum:              340

Satellite: IO-26
Catalog number: 22826
Epoch time:      10273.90589663
Element set:     377
Inclination:      098.4896 deg
RA of node:       219.7332 deg
Eccentricity:    0.0008431
Arg of perigee:   318.4184 deg
Mean anomaly:     041.6362 deg
Mean motion:   14.29567106 rev/day
Decay rate:        2.5e-07 rev/day^2
Epoch rev:           88726
Checksum:              332

Satellite: GO-32
Catalog number: 25397
Epoch time:      10272.85572716
Element set:    0296
Inclination:      098.3160 deg
RA of node:       274.5589 deg
Eccentricity:    0.0001124
Arg of perigee:   005.7697 deg
Mean anomaly:     354.3497 deg
Mean motion:   14.23185190 rev/day
Decay rate:      -1.07e-06 rev/day^2
Epoch rev:           63493
Checksum:              323

Satellite: NO-44
Catalog number: 26931
Epoch time:      10273.42420535
Element set:     570
Inclination:      067.0532 deg
RA of node:       292.8353 deg
Eccentricity:    0.0005419
Arg of perigee:   270.2742 deg
Mean anomaly:     089.7731 deg
Mean motion:   14.29613678 rev/day
Decay rate:       2.19e-06 rev/day^2
Epoch rev:           46979
Checksum:              316

